Weather History for K1F0 - October, 2012

Change the Weather History Date:

Saturday, October 6, 2012

  Actual Average (KADM) Record (KADM)
Temperature  
Mean Temperature 48 °F -  
Max Temperature 50 °F 76 °F 87 °F (1997)
Min Temperature 46 °F 56 °F 39 °F (2013)
Degree Days  
Heating Degree Days 17    
Moisture  
Dew Point 36 °F    
Average Humidity 63    
Maximum Humidity 76    
Minimum Humidity 50    
Precipitation  
Precipitation 0.00 in - - ()
Sea Level Pressure  
Sea Level Pressure 30.22 in    
Wind  
Wind Speed 11 mph (NE)    
Max Wind Speed 16 mph    
Max Gust Speed 22 mph    
Visibility 10 miles    
Events Rain    
Averages and records for this station are not official NWS values.
T = Trace of Precipitation, MM = Missing Value Source: NWS Daily Summary

Daily Weather History Graph

Daily Weather History Graph

Search for Another Location

Airport or City:

Trip Planner

Search our weather history database for the weather conditions in past years. The results will help you decide how hot, cold, wet, or windy it might be!

Date:

Astronomy

Oct. 06, 2012 Rise Set
Actual Time 7:27 AM CDT 7:05 PM CDT
Civil Twilight 7:02 AM CDT 7:30 PM CDT
Nautical Twilight 6:33 AM CDT 7:59 PM CDT
Astronomical Twilight 6:03 AM CDT 8:28 PM CDT
Moon 11:33 PM CDT 1:10 PM CDT
Length of Visible Light 12h 28m
Length of Day
11h 38m
Waning Gibbous, 65% of the Moon is Illuminated
Oct 6
Waning Gibbous
Oct 8
Last Quarter
Oct 15
New
Oct 21
First Quarter
Oct 29
Full

Hourly Weather History & Observations

Time (CDT) Temp. Windchill Dew Point Humidity Pressure Visibility Wind Dir Wind Speed Gust Speed Precip Events Conditions
12:15 AM 50.0 °F - 41.0 °F 71% 30.17 in 10.0 mi NE 11.5 mph - N/A   Scattered Clouds
12:35 AM 50.0 °F - 41.0 °F 71% 30.17 in 10.0 mi NE 10.4 mph 16.1 mph N/A   Overcast
12:55 AM 50.0 °F - 41.0 °F 71% 30.18 in 10.0 mi NE 11.5 mph 17.3 mph N/A   Overcast
1:15 AM 50.0 °F - 41.0 °F 71% 30.18 in 10.0 mi ENE 6.9 mph - N/A   Overcast
1:35 AM 50.0 °F - 41.0 °F 71% 30.17 in 10.0 mi ENE 11.5 mph 18.4 mph N/A   Overcast
1:55 AM 50.0 °F - 41.0 °F 71% 30.18 in 10.0 mi NE 16.1 mph 19.6 mph N/A   Overcast
2:15 AM 50.0 °F - 41.0 °F 71% 30.19 in 10.0 mi NE 12.7 mph 20.7 mph N/A   Overcast
2:35 AM 50.0 °F - 41.0 °F 71% 30.19 in 10.0 mi NE 13.8 mph 19.6 mph N/A   Overcast
2:55 AM 50.0 °F - 39.2 °F 66% 30.19 in 10.0 mi NE 12.7 mph 21.9 mph N/A   Overcast
3:15 AM 50.0 °F - 39.2 °F 66% 30.18 in 10.0 mi NE 12.7 mph - N/A   Overcast
3:35 AM 50.0 °F - 37.4 °F 62% 30.19 in 10.0 mi NE 11.5 mph 18.4 mph N/A   Overcast
3:55 AM 50.0 °F - 37.4 °F 62% 30.19 in 10.0 mi NE 11.5 mph 17.3 mph N/A   Overcast
4:35 AM 48.2 °F - 35.6 °F 62% 30.20 in 10.0 mi NE 13.8 mph 18.4 mph N/A   Overcast
4:55 AM 46.4 °F 41.1 °F 35.6 °F 66% 30.20 in 10.0 mi NE 11.5 mph 16.1 mph N/A   Overcast
5:35 AM 46.4 °F 41.1 °F 35.6 °F 66% 30.20 in 10.0 mi NE 11.5 mph 18.4 mph N/A   Overcast
5:55 AM 46.4 °F 40.7 °F 35.6 °F 66% 30.21 in 10.0 mi NE 12.7 mph 18.4 mph N/A   Overcast
6:15 AM 46.4 °F 41.5 °F 33.8 °F 62% 30.21 in 10.0 mi NE 10.4 mph 18.4 mph N/A   Overcast
6:55 AM 46.4 °F 40.7 °F 33.8 °F 62% 30.21 in 10.0 mi ENE 12.7 mph 21.9 mph N/A   Overcast
7:15 AM 46.4 °F 40.7 °F 33.8 °F 62% 30.21 in 10.0 mi NE 12.7 mph 18.4 mph N/A   Overcast
7:35 AM 46.4 °F 41.9 °F 33.8 °F 62% 30.21 in 10.0 mi ENE 9.2 mph 17.3 mph N/A   Overcast
7:55 AM 46.4 °F 40.1 °F 33.8 °F 62% 30.20 in 10.0 mi NE 15.0 mph - N/A   Overcast
8:15 AM 46.4 °F 40.7 °F 35.6 °F 66% 30.20 in 10.0 mi NE 12.7 mph 19.6 mph N/A   Overcast
8:35 AM 46.4 °F 41.9 °F 35.6 °F 66% 30.21 in 10.0 mi NE 9.2 mph 16.1 mph N/A   Overcast
8:55 AM 46.4 °F 41.5 °F 35.6 °F 66% 30.21 in 10.0 mi NE 10.4 mph - N/A   Overcast
9:15 AM 46.4 °F 41.5 °F 35.6 °F 66% 30.22 in 10.0 mi ENE 10.4 mph - N/A   Overcast
9:35 AM 46.4 °F 41.1 °F 35.6 °F 66% 30.22 in 10.0 mi ENE 11.5 mph 18.4 mph N/A   Overcast
9:55 AM 48.2 °F - 35.6 °F 62% 30.23 in 10.0 mi NE 10.4 mph 16.1 mph N/A   Overcast
10:35 AM 46.4 °F 40.7 °F 37.4 °F 71% 30.24 in 10.0 mi NE 12.7 mph 16.1 mph N/A Rain Light Rain
10:55 AM 46.4 °F 41.1 °F 35.6 °F 66% 30.23 in 10.0 mi NE 11.5 mph 16.1 mph N/A   Light Drizzle
11:15 AM 48.2 °F - 35.6 °F 62% 30.23 in 10.0 mi NE 11.5 mph 18.4 mph N/A   Overcast
11:35 AM 48.2 °F - 35.6 °F 62% 30.23 in 10.0 mi NE 10.4 mph - N/A   Overcast
11:55 AM 46.4 °F 42.4 °F 37.4 °F 71% 30.23 in 10.0 mi ENE 8.1 mph - N/A   Light Drizzle
12:15 PM 46.4 °F 41.1 °F 37.4 °F 71% 30.23 in 10.0 mi NE 11.5 mph 17.3 mph N/A   Overcast
12:35 PM 46.4 °F 42.4 °F 37.4 °F 71% 30.23 in 7.0 mi ENE 8.1 mph - N/A   Drizzle
12:55 PM 46.4 °F 41.5 °F 39.2 °F 76% 30.23 in 10.0 mi NE 10.4 mph - N/A   Overcast
1:15 PM 46.4 °F 41.9 °F 37.4 °F 71% 30.23 in 10.0 mi ENE 9.2 mph - N/A   Overcast
1:35 PM 48.2 °F - 37.4 °F 66% 30.22 in 10.0 mi NE 9.2 mph - N/A   Overcast
1:55 PM 46.4 °F 41.5 °F 37.4 °F 71% 30.22 in 10.0 mi NE 10.4 mph - N/A   Overcast
2:15 PM 46.4 °F 41.9 °F 37.4 °F 71% 30.21 in 10.0 mi NE 9.2 mph - N/A   Overcast
2:35 PM 48.2 °F - 37.4 °F 66% 30.20 in 10.0 mi NE 5.8 mph - N/A   Overcast
2:55 PM 48.2 °F - 35.6 °F 62% 30.20 in 10.0 mi ENE 10.4 mph 18.4 mph N/A   Overcast
3:15 PM 48.2 °F - 35.6 °F 62% 30.20 in 10.0 mi NE 10.4 mph 16.1 mph N/A   Overcast
3:35 PM 46.4 °F 42.9 °F 35.6 °F 66% 30.20 in 10.0 mi NE 6.9 mph - N/A   Overcast
3:55 PM 46.4 °F 41.5 °F 35.6 °F 66% 30.20 in 10.0 mi ENE 10.4 mph 17.3 mph N/A   Overcast
4:15 PM 46.4 °F 42.4 °F 35.6 °F 66% 30.21 in 10.0 mi NE 8.1 mph - N/A   Overcast
4:35 PM 46.4 °F 41.9 °F 33.8 °F 62% 30.22 in 10.0 mi ENE 9.2 mph 16.1 mph N/A   Overcast
4:55 PM 46.4 °F 41.9 °F 33.8 °F 62% 30.21 in 10.0 mi ENE 9.2 mph 18.4 mph N/A   Overcast
5:15 PM 46.4 °F 42.4 °F 33.8 °F 62% 30.20 in 10.0 mi ENE 8.1 mph - N/A   Overcast
5:35 PM 46.4 °F 41.9 °F 33.8 °F 62% 30.20 in 10.0 mi NE 9.2 mph - N/A   Overcast
5:55 PM 48.2 °F - 33.8 °F 58% 30.22 in 10.0 mi NE 10.4 mph - N/A   Overcast
6:15 PM 48.2 °F - 32.0 °F 54% 30.23 in 10.0 mi NE 11.5 mph 16.1 mph N/A   Overcast
6:35 PM 48.2 °F - 32.0 °F 54% 30.23 in 10.0 mi NE 8.1 mph - N/A   Overcast
6:55 PM 48.2 °F - 32.0 °F 54% 30.24 in 10.0 mi NE 8.1 mph - N/A   Overcast
7:15 PM 48.2 °F - 30.2 °F 50% 30.24 in 10.0 mi ENE 9.2 mph - N/A   Overcast
7:35 PM 48.2 °F - 32.0 °F 54% 30.24 in 10.0 mi NE 6.9 mph - N/A   Overcast
7:55 PM 48.2 °F - 32.0 °F 54% 30.24 in 10.0 mi NE 6.9 mph - N/A   Overcast
8:15 PM 48.2 °F - 32.0 °F 54% 30.25 in 10.0 mi NE 6.9 mph - N/A   Overcast
8:35 PM 48.2 °F - 32.0 °F 54% 30.26 in 10.0 mi ENE 10.4 mph - N/A   Overcast
8:55 PM 48.2 °F - 32.0 °F 54% 30.27 in 10.0 mi NE 9.2 mph - N/A   Overcast
9:15 PM 48.2 °F - 32.0 °F 54% 30.27 in 10.0 mi NE 10.4 mph - N/A   Overcast
9:35 PM 48.2 °F - 32.0 °F 54% 30.28 in 10.0 mi NE 6.9 mph - N/A   Overcast
9:55 PM 48.2 °F - 32.0 °F 54% 30.29 in 10.0 mi NE 13.8 mph 17.3 mph N/A   Overcast
10:15 PM 48.2 °F - 32.0 °F 54% 30.29 in 10.0 mi NE 12.7 mph 18.4 mph N/A   Overcast
10:35 PM 46.4 °F 40.7 °F 32.0 °F 57% 30.30 in 10.0 mi NE 12.7 mph 17.3 mph N/A   Overcast
10:55 PM 46.4 °F 41.5 °F 32.0 °F 57% 30.30 in 10.0 mi NE 10.4 mph - N/A   Overcast
11:15 PM 46.4 °F 42.4 °F 32.0 °F 57% 30.30 in 10.0 mi NE 8.1 mph - N/A   Overcast
11:55 PM 46.4 °F 41.5 °F 33.8 °F 62% 30.31 in 10.0 mi NE 10.4 mph - N/A   Overcast